GFSWCAN_2pvu_pres_057.txt.gz
Presure
405 426 407 394 375 367 363 375 396 352 344 331 307 292 292 287 297 295 308 331 361 532 373 289 252 243 226 216 180 201 226 211 213 213 213 162 203 195 207 203 202 209 201 222 209 217 211 227 226 226 221 230 225 229
393 411 417 418 432 385 399 377 350 334 323 305 293 291 295 300 298 294 312 330 347 526 421 328 253 248 226 224 230 224 232 222 221 146 217 209 212 212 196 209 216 214 218 216 217 216 222 222 223 217 226 213 225 236
373 368 395 426 393 377 363 346 337 324 319 308 304 291 302 295 296 291 308 322 343 503 502 346 262 242 215 231 220 216 226 233 136 137 206 216 216 210 216 213 207 206 217 222 228 223 225 225 224 214 221 230 267 235
345 347 347 355 352 346 337 329 321 317 309 312 295 298 300 292 299 297 315 324 336 460 508 339 281 247 226 231 231 224 217 228 232 229 228 226 224 220 212 213 215 215 217 225 219 222 226 227 230 222 226 226 225 254
323 335 327 324 322 321 320 317 318 318 313 307 305 300 291 298 303 310 321 329 292 385 nan 339 279 252 247 235 232 205 236 221 221 220 226 218 220 205 215 210 207 217 218 219 222 215 220 225 223 221 219 224 226 264
330 321 319 322 318 312 315 315 310 308 305 305 297 305 296 305 310 173 334 339 340 152 586 340 303 255 250 236 232 230 232 242 225 215 214 208 210 205 216 224 221 218 213 214 209 213 211 214 221 223 234 225 247 257
354 334 322 321 318 319 319 314 312 312 311 310 309 310 304 308 327 329 346 397 401 453 487 318 304 262 248 238 232 195 231 238 238 227 216 222 164 223 221 151 209 193 215 211 212 216 219 220 222 225 226 230 255 249
396 378 357 339 331 327 325 322 321 321 321 321 325 328 331 342 353 388 442 459 352 442 466 320 308 269 255 241 236 231 183 234 194 229 223 220 220 221 201 217 211 208 211 212 216 214 219 222 228 228 249 246 250 248
482 463 409 401 392 373 366 361 356 353 351 351 354 356 367 377 379 425 405 329 135 456 454 327 310 273 251 246 239 218 234 230 232 226 218 169 220 222 207 214 212 213 219 215 215 210 223 200 218 232 178 248 258 253
357 467 465 451 395 392 404 414 416 458 423 415 415 414 400 418 414 411 418 163 445 416 420 139 304 301 257 248 241 242 234 223 244 231 231 228 228 223 223 223 221 221 226 225 222 196 264 230 246 256 265 262 266 255
256 302 335 341 359 429 444 430 440 444 470 476 441 451 431 410 413 416 417 439 435 373 223 298 289 274 252 218 239 236 225 236 215 220 218 231 215 225 230 228 177 223 222 238 264 257 251 258 256 254 253 246 247 242
310 283 322 332 337 372 431 490 441 424 440 455 442 441 424 426 383 418 414 387 334 307 303 289 277 273 266 254 244 241 237 239 240 238 230 218 229 230 232 225 231 264 272 257 254 253 254 249 247 212 226 233 231 233
244 294 235 227 297 303 303 305 328 328 341 340 351 354 349 341 337 334 327 165 278 278 277 222 161 170 267 225 248 242 239 239 237 233 233 229 235 234 275 276 265 258 255 256 245 244 248 260 228 234 212 207 218 245
253 243 255 248 272 275 279 212 291 285 296 293 286 284 283 280 278 275 264 269 239 212 200 263 260 260 259 255 206 248 249 245 249 249 216 239 273 261 260 255 246 251 253 236 245 247 230 232 242 224 225 237 238 244
235 262 239 210 259 241 262 257 230 264 222 225 223 218 272 239 227 269 228 263 267 272 265 270 204 261 270 264 239 202 270 276 274 266 254 202 262 254 187 232 239 252 234 249 225 247 254 233 223 221 222 226 225 226
260 232 240 252 247 271 229 237 236 262 250 248 269 269 216 246 223 216 254 268 255 246 258 266 269 239 210 259 264 262 259 261 252 253 258 262 252 254 257 214 231 247 249 241 247 212 213 221 220 220 222 222 223 225
242 259 234 230 252 238 255 233 254 281 264 269 265 264 235 273 225 277 270 259 259 189 243 259 255 247 259 229 253 253 249 209 258 254 242 248 254 263 250 246 228 225 230 250 247 229 239 231 225 222 224 222 224 226
227 229 232 239 243 235 235 243 243 229 226 237 223 265 261 228 260 258 252 264 268 259 258 248 239 268 247 247 250 240 246 244 244 230 233 243 246 249 247 238 233 234 238 246 225 201 210 223 228 246 225 232 225 224
241 237 250 260 241 244 227 233 232 240 266 227 266 255 232 243 257 254 258 242 268 265 245 243 266 236 248 249 243 237 241 244 249 249 240 231 229 221 226 236 225 230 224 225 230 232 227 225 247 251 251 242 242 249
245 230 230 234 248 245 246 228 232 243 253 257 235 232 255 236 225 231 245 257 240 264 253 218 226 256 240 238 237 238 254 221 230 224 224 229 236 228 231 237 243 227 219 222 232 236 254 247 243 248 251 249 240 248
235 237 238 240 244 243 242 243 240 243 238 239 255 257 254 253 236 231 233 229 230 249 244 228 226 258 257 231 231 230 229 242 252 245 251 240 225 234 237 249 252 251 252 256 256 248 247 254 265 269 267 265 264 263
226 225 226 230 233 236 236 236 235 236 240 244 245 239 233 236 244 246 249 258 244 253 258 253 239 229 223 225 225 227 242 229 235 235 236 239 251 255 259 251 237 240 246 249 256 268 267 264 264 262 259 257 258 260
228 231 247 256 231 222 243 247 245 244 236 234 234 238 238 240 242 245 251 253 253 254 250 245 243 242 244 250 250 252 255 253 252 249 249 252 254 257 261 263 263 263 264 258 257 259 259 254 254 258 263 270 276 277
242 249 246 244 239 233 241 238 236 253 252 253 243 240 240 239 238 242 242 242 239 243 244 248 251 252 257 259 262 263 262 264 267 269 268 257 256 251 252 253 255 258 260 262 265 268 266 266 267 271 266 267 269 271
244 245 250 250 247 249 241 240 258 253 252 253 252 253 213 244 243 263 251 251 252 248 247 250 250 256 260 260 260 261 260 261 258 258 258 259 261 259 261 261 257 250 249 249 253 259 263 264 264 268 281 292 300 322
258 251 254 188 236 213 259 266 272 272 273 258 246 258 274 279 281 277 276 281 287 291 286 280 264 270 271 265 264 264 271 267 263 275 277 280 285 285 282 284 283 277 267 270 278 286 295 309 321 324 325 323 335 360
230 265 270 270 270 273 262 265 274 278 280 299 335 342 354 356 362 362 361 366 375 368 364 366 365 370 365 369 369 335 315 298 289 284 285 286 280 280 282 285 294 293 303 316 328 318 319 320 346 362 356 354 424 431
266 273 276 267 274 283 275 279 329 330 331 332 340 370 375 374 387 440 441 436 425 422 423 422 353 352 414 363 363 362 363 360 358 356 355 350 350 353 356 354 355 356 358 359 354 352 354 413 402 434 426 414 404 396
272 273 296 283 279 315 318 315 318 337 344 358 367 376 427 420 416 414 413 413 414 411 407 402 402 406 407 409 411 412 414 411 408 410 413 422 425 428 430 430 427 424 420 414 406 399 423 421 409 398 385 377 372 368
285 281 307 312 309 311 319 328 334 367 363 401 418 405 395 394 392 395 395 394 392 391 397 403 404 402 404 407 408 407 407 405 412 413 418 421 418 412 405 399 393 385 380 390 410 396 388 379 379 372 365 362 358 360
312 307 306 313 320 330 328 361 360 406 416 397 385 384 400 420 447 443 409 396 389 385 383 379 385 427 415 400 402 409 410 409 402 398 392 390 386 383 377 412 413 395 384 372 375 374 371 364 360 356 352 356 355 365
311 318 326 327 340 357 353 393 411 400 377 376 396 440 450 433 427 430 433 437 435 430 386 380 377 380 384 379 375 372 370 368 369 373 374 433 413 393 378 368 359 358 352 363 363 354 352 351 344 345 350 357 357 355
323 332 350 355 358 377 409 397 380 371 386 421 450 435 418 418 425 427 426 369 363 361 368 372 386 386 379 378 379 376 374 435 407 390 378 368 358 353 346 343 343 349 349 344 338 337 339 348 356 357 357 354 358 354

GFSWCAN_2pvu_pres_063.txt.gz
Presure
451 395 362 370 379 460 461 443 436 447 368 349 354 339 369 373 351 355 322 298 285 98 281 250 172 99 471 398 249 182 169 241 242 227 229 216 217 211 206 205 204 208 213 206 201 199 187 194 200 206 202 201 210 205
414 356 361 354 377 457 430 405 428 406 370 353 350 349 371 365 221 299 297 289 282 275 282 277 298 318 456 531 265 249 214 242 241 234 228 232 215 215 211 165 208 201 200 211 204 188 189 193 206 200 206 202 202 199
360 357 345 344 348 367 408 383 382 368 360 341 357 392 353 340 338 167 290 287 280 272 280 289 294 316 389 523 287 252 248 246 245 238 231 229 226 225 223 220 220 214 207 206 206 191 197 206 206 207 201 201 207 201
366 368 348 343 355 357 350 344 344 357 365 370 366 362 358 351 311 293 285 280 279 280 282 289 299 309 348 450 300 254 186 255 245 247 239 230 228 212 215 218 222 221 216 208 201 202 206 205 206 207 199 206 201 215
356 351 343 363 353 343 351 352 347 345 366 355 351 350 184 318 247 238 239 281 281 185 284 282 298 306 334 371 343 259 256 250 247 246 244 238 229 230 232 224 217 157 219 217 213 208 208 207 207 198 210 202 214 211
348 344 341 344 340 332 332 333 336 339 349 362 376 369 325 305 286 282 278 281 281 279 279 280 300 309 327 356 504 263 256 254 251 247 238 239 236 230 229 224 216 212 213 216 212 212 211 207 206 209 207 213 211 217
324 322 322 329 326 322 324 322 325 329 330 326 324 317 310 305 300 296 275 276 278 282 276 287 298 315 341 377 466 271 261 254 252 251 246 242 242 238 227 199 216 212 213 213 211 209 210 210 209 210 208 213 212 222
316 320 310 313 320 320 315 319 317 314 308 306 301 297 295 294 293 281 124 279 281 286 289 289 300 309 346 409 431 320 260 254 251 247 244 246 241 239 163 204 215 204 178 211 210 210 212 206 209 211 212 211 196 210
324 317 317 308 310 310 308 304 299 300 296 291 288 290 292 295 290 275 246 279 133 295 289 293 306 308 337 403 416 395 263 258 223 250 245 246 234 232 176 132 148 220 152 213 211 211 211 213 213 212 213 218 209 211
348 333 322 318 311 307 305 304 300 298 296 296 289 283 278 279 282 281 253 292 301 293 139 304 298 322 420 407 383 302 279 256 237 249 246 232 225 230 226 224 223 224 221 219 220 218 217 216 215 219 214 216 211 211
480 407 350 334 322 312 310 309 308 306 303 296 293 290 288 285 285 295 301 263 300 192 307 311 322 380 408 427 392 302 275 262 258 249 240 175 222 225 224 201 150 224 225 224 222 221 220 218 207 208 210 212 152 218
349 522 572 372 349 337 321 311 307 306 307 304 301 305 305 304 303 301 298 296 299 235 308 313 333 329 319 304 183 308 261 262 256 249 241 222 223 220 218 216 216 208 198 187 206 208 208 213 220 219 219 222 218 214
235 313 331 368 476 464 381 364 359 352 340 341 341 339 338 334 327 330 327 330 342 423 425 314 310 167 170 201 286 275 234 248 254 249 243 235 230 228 221 220 220 221 221 221 221 223 225 224 223 223 204 209 222 222
256 284 249 298 299 301 311 319 330 335 349 366 379 421 434 429 434 427 442 441 353 372 329 315 301 285 288 285 300 238 225 259 234 252 246 241 229 233 233 229 229 225 217 222 224 219 215 213 210 218 216 230 214 234
242 224 217 237 267 283 258 293 300 303 304 307 316 325 335 378 419 428 394 372 347 339 317 304 302 290 288 285 283 298 287 270 228 240 245 239 230 232 230 224 229 222 206 215 190 210 217 214 214 229 228 227 225 234
228 250 270 241 273 252 274 264 286 287 286 284 291 291 299 303 324 391 363 347 344 357 328 317 306 308 301 295 304 301 279 300 255 256 243 245 244 240 240 240 236 218 198 219 224 218 221 228 227 226 222 241 244 232
235 247 251 264 211 279 206 275 264 276 279 271 276 278 283 285 283 291 297 301 302 299 323 269 330 319 308 247 297 284 284 290 311 264 262 257 244 236 234 232 233 230 231 227 228 226 211 206 237 240 248 246 259 257
242 243 252 251 249 252 244 254 270 253 251 194 225 261 261 269 269 274 278 273 277 280 268 285 284 294 300 297 292 289 288 272 266 262 258 253 251 249 246 244 245 243 240 240 236 237 237 235 242 250 249 253 261 260
241 262 245 225 235 232 243 236 247 244 249 231 204 235 241 255 244 265 261 246 199 270 268 272 273 274 273 273 277 234 201 268 264 260 257 256 254 218 249 249 247 245 240 244 238 250 256 253 254 257 262 262 259 250
242 242 243 241 243 240 237 232 250 245 248 243 256 254 244 274 232 204 255 260 255 257 261 262 260 262 258 253 258 251 250 258 262 261 257 243 258 261 255 258 256 255 256 254 259 266 262 270 264 263 259 240 227 227
239 236 236 242 240 242 238 242 241 235 243 239 236 244 250 251 231 231 232 264 250 255 256 242 236 255 256 253 258 255 255 254 252 249 262 247 255 255 259 258 264 270 262 262 265 267 263 255 259 258 234 255 239 240
231 233 231 237 237 240 237 238 236 238 230 239 240 242 244 244 245 246 252 238 234 232 234 245 243 254 255 260 262 237 265 251 259 260 262 271 265 265 260 260 238 266 260 268 251 243 247 249 248 246 245 240 243 254
238 238 235 236 233 239 241 233 233 235 234 237 239 241 238 238 240 244 244 243 244 244 246 248 246 241 242 238 242 245 245 249 252 254 256 257 255 252 252 254 252 250 249 248 250 251 251 251 256 259 260 261 263 269
238 235 236 234 239 245 239 242 244 234 241 239 239 245 250 249 244 244 243 243 242 240 244 244 243 244 247 249 251 254 258 258 259 257 253 250 256 258 264 265 265 265 265 265 264 266 266 265 270 278 276 272 252 249
235 244 233 234 243 243 239 233 239 238 242 246 245 241 242 247 256 254 253 255 252 250 251 252 255 257 257 258 261 261 263 261 261 260 264 262 263 266 268 242 274 274 275 252 250 272 273 271 271 265 268 275 280 285
237 245 248 249 249 239 241 243 245 249 247 249 262 265 264 261 263 269 273 274 266 265 264 249 249 233 275 275 275 276 276 276 277 278 282 281 281 277 275 271 268 273 277 279 279 282 289 293 294 294 299 305 333 369
241 243 241 238 243 247 248 246 253 257 263 226 270 268 268 279 274 279 287 295 296 332 344 374 386 431 449 449 453 454 447 444 438 384 373 360 357 305 304 302 302 305 344 343 322 313 313 314 335 359 362 350 361 397
244 246 242 245 257 260 204 255 260 261 292 297 292 280 287 290 295 296 330 347 365 374 431 431 423 416 413 412 412 412 418 422 424 426 425 426 425 424 421 412 398 384 382 381 371 354 423 431 432 426 419 411 399 404
255 258 255 251 251 258 271 274 277 275 276 289 290 288 301 320 332 344 366 428 425 419 413 406 400 400 405 406 404 399 396 400 405 408 409 413 413 414 414 415 416 419 422 425 425 422 418 412 407 400 397 389 387 379
259 263 265 269 273 272 274 273 286 293 289 295 307 320 330 340 348 426 416 410 407 428 457 454 450 450 451 446 425 409 408 391 393 393 390 389 393 400 402 403 401 404 401 397 391 385 389 390 383 373 365 361 359 356
272 269 268 272 279 290 297 295 294 299 309 318 331 340 350 413 420 408 466 460 452 443 434 426 428 434 444 447 443 434 422 415 421 383 387 389 384 377 373 369 362 368 385 379 379 369 360 353 351 351 353 358 360 364
278 287 293 297 295 294 298 298 308 318 332 335 345 422 422 407 466 463 441 430 434 437 433 428 429 422 420 382 383 374 363 361 373 384 386 381 377 380 400 387 375 366 357 352 349 350 352 354 355 355 357 369 376 378
298 295 294 295 298 304 312 324 328 329 341 367 427 411 396 457 450 428 418 415 401 391 388 386 387 389 389 389 387 385 383 380 375 380 401 387 378 367 358 352 346 347 354 355 353 351 352 359 363 365 366 377 380 374

GFSWCAN_2pvu_pres_069.txt.gz
Presure
354 364 368 376 346 363 366 379 390 417 372 369 369 379 392 420 290 94 349 365 354 354 340 341 227 115 166 183 211 303 222 285 310 327 277 251 249 259 267 243 226 222 229 220 214 203 202 196 197 197 202 184 185 147
357 370 360 352 352 370 438 417 414 404 412 396 370 365 374 402 415 394 349 362 335 336 321 334 313 128 320 180 319 289 286 289 303 323 285 259 242 252 271 247 236 224 223 213 216 211 203 199 198 195 200 201 207 199
349 350 360 364 351 405 416 427 438 440 429 435 368 365 385 367 363 381 364 337 325 326 315 277 316 112 311 328 174 139 290 210 128 327 285 258 247 259 273 249 227 225 233 220 217 210 205 199 192 196 200 206 199 201
329 329 339 361 364 424 388 392 417 443 451 383 383 386 200 364 362 346 324 316 312 317 313 312 223 323 338 374 350 300 287 276 296 326 220 263 255 263 264 240 223 223 235 221 211 212 210 207 201 203 204 200 201 200
323 324 336 367 338 344 346 344 353 357 368 373 390 397 390 346 332 321 319 308 307 310 144 316 204 346 337 358 292 284 280 273 296 326 364 274 262 257 257 248 226 230 233 227 162 211 211 208 207 206 205 209 211 209
322 319 329 365 345 331 331 336 341 335 334 336 338 338 364 337 322 315 307 313 308 124 302 343 332 321 324 276 279 278 276 282 306 416 392 289 261 265 257 247 226 226 227 177 216 205 207 213 209 209 207 208 207 205
311 312 320 335 354 344 333 326 329 325 345 354 360 387 359 380 328 316 161 316 270 338 335 338 325 291 275 266 269 273 280 287 308 398 365 287 252 253 259 234 228 219 223 229 225 216 211 211 210 203 201 200 201 202
307 314 313 321 346 362 349 333 324 340 370 345 339 353 374 350 132 127 144 290 330 337 328 287 275 275 270 266 271 279 283 293 411 381 327 232 254 252 243 239 193 233 232 236 230 225 217 224 223 218 213 214 215 214
306 307 311 314 327 345 348 354 336 341 338 325 324 326 331 325 304 305 324 328 319 281 280 273 268 268 271 267 273 279 287 294 342 337 343 267 206 215 259 251 240 236 233 226 229 228 219 216 218 214 214 213 210 211
309 301 304 308 316 313 335 345 336 341 330 326 329 327 334 323 323 317 309 285 282 270 270 271 268 270 275 275 284 284 292 293 185 360 335 337 260 161 132 251 252 239 232 140 140 225 223 222 221 220 216 218 148 205
298 298 299 298 302 310 312 317 330 332 337 323 319 310 303 223 289 286 277 272 270 268 269 271 271 272 269 269 282 292 295 310 324 368 285 336 287 271 130 226 251 248 172 231 227 228 226 233 227 219 215 215 215 214
305 298 294 294 292 291 302 310 310 309 305 293 288 285 280 277 278 276 273 275 273 273 274 266 268 268 268 271 284 286 318 357 321 303 243 286 342 213 266 179 245 254 243 206 229 225 226 224 221 190 224 220 219 219
335 323 316 304 299 295 292 288 292 304 298 288 286 291 287 273 270 274 272 277 274 274 274 270 269 269 276 282 293 304 345 326 310 309 330 330 320 342 277 251 244 142 126 221 210 234 237 217 229 224 221 222 224 227
289 291 293 296 330 355 324 303 299 293 287 289 294 289 286 284 283 279 278 279 273 143 162 165 269 275 303 311 319 309 329 319 167 306 231 343 412 380 359 269 251 246 242 243 239 233 234 234 231 230 228 225 225 225
264 277 283 287 289 291 302 421 423 331 305 297 296 292 288 288 285 283 279 271 197 273 273 233 291 309 189 353 318 313 243 304 294 281 299 309 386 370 322 312 264 249 245 242 239 234 237 233 230 229 227 225 225 229
227 227 237 239 253 279 285 292 318 405 426 402 343 309 308 298 293 289 281 277 274 277 288 291 286 296 318 325 253 148 286 287 291 285 287 298 313 374 345 319 289 268 252 242 240 240 237 233 230 228 228 224 228 233
252 254 260 260 270 265 269 275 283 294 353 437 436 446 447 410 322 301 296 289 279 288 291 285 296 283 289 289 296 282 251 295 301 306 336 287 320 312 332 289 284 267 252 245 238 236 230 234 233 232 229 227 232 234
234 238 240 242 233 237 252 257 266 267 280 293 305 319 336 325 433 464 463 307 301 294 294 304 288 279 279 276 283 290 296 280 297 291 284 277 178 293 313 314 281 270 258 253 243 241 239 241 236 236 234 233 234 232
253 237 240 245 242 254 245 243 247 248 258 262 268 274 282 288 300 312 308 296 285 300 302 275 264 271 226 289 269 265 265 270 271 278 282 283 289 292 293 283 286 295 274 262 258 254 252 247 241 240 241 242 241 241
229 238 248 248 245 250 255 253 255 251 257 252 250 248 256 255 254 255 255 269 267 262 265 270 271 273 274 277 272 269 267 267 266 269 275 274 279 279 284 287 289 266 270 271 262 256 260 258 257 256 254 252 248 245
247 244 241 223 243 222 246 240 255 245 252 218 208 206 256 255 255 246 238 233 231 249 246 246 251 248 251 190 258 262 260 260 261 271 273 271 263 263 264 266 270 273 273 288 294 259 259 257 259 259 258 260 259 260
240 242 241 241 237 239 241 245 241 243 243 240 236 244 245 243 242 246 248 236 238 239 237 234 236 235 235 245 252 248 257 259 258 259 259 263 262 268 265 270 275 282 283 286 288 287 288 289 290 290 289 285 286 283
237 239 238 237 235 238 232 239 235 235 234 232 235 237 237 238 233 241 242 232 237 239 238 241 247 249 243 237 238 239 239 243 247 249 249 255 257 266 268 269 270 270 270 270 274 275 277 277 277 276 277 277 278 281
237 237 232 232 234 236 236 234 234 232 238 239 237 237 238 238 240 243 240 238 241 241 241 241 240 241 238 247 248 249 250 248 252 251 254 241 247 249 258 261 264 264 270 275 273 277 280 278 280 279 278 277 276 276
233 229 235 239 239 234 231 228 245 243 238 241 242 241 239 242 245 240 240 242 243 245 249 252 255 259 257 256 262 262 255 263 271 262 263 265 269 272 274 275 275 275 276 276 277 276 279 284 284 283 277 273 270 270
240 240 233 239 241 240 241 241 239 240 240 242 243 244 248 251 249 248 247 250 257 255 254 261 265 278 283 287 291 306 340 347 361 319 316 308 308 309 303 296 294 291 289 287 286 286 286 273 286 287 286 286 286 285
234 240 245 247 245 245 244 244 249 248 249 250 252 245 251 256 252 253 261 268 265 271 286 301 310 327 362 405 427 435 439 436 431 428 424 421 418 418 414 411 412 413 376 377 377 378 381 382 381 383 429 426 424 424
248 247 247 248 246 247 247 243 247 251 250 259 252 257 259 265 270 266 269 276 284 306 322 333 428 457 451 435 423 412 407 404 402 402 403 400 399 398 399 398 398 400 402 399 397 401 405 407 406 405 407 408 401 396
247 247 245 244 239 246 251 253 254 255 257 258 265 271 268 269 274 281 287 311 325 334 465 453 434 423 456 477 468 462 457 455 452 447 445 444 441 437 434 429 422 411 411 403 394 391 390 396 385 382 379 379 380 376
248 249 251 253 253 251 255 255 257 263 267 269 272 275 280 285 287 312 322 335 462 450 432 415 474 456 445 446 445 441 435 432 430 433 441 446 449 451 447 435 409 401 385 378 375 374 371 379 387 378 369 364 361 356
253 253 252 256 260 259 262 267 262 271 271 280 282 283 288 306 324 329 422 447 432 414 404 447 432 429 421 410 405 403 400 399 398 391 380 387 389 390 371 366 366 379 382 384 385 380 372 364 357 352 357 359 358 354
259 262 264 264 264 256 269 272 278 281 276 284 290 299 323 326 391 441 430 430 412 386 418 411 406 401 396 388 382 380 379 379 379 381 382 382 381 380 378 374 392 385 376 366 356 352 354 358 356 354 349 347 342 339
264 264 267 273 275 277 279 279 282 285 299 323 320 327 369 443 440 422 458 450 388 389 408 393 383 380 381 384 384 382 379 374 371 389 412 415 404 390 380 369 358 348 350 360 357 353 349 345 340 337 339 343 339 337

GFSWCAN_2pvu_pres_072.txt.gz
Presure
364 369 355 353 366 366 360 354 357 355 353 361 361 362 414 355 371 405 173 165 283 268 270 266 119 264 265 263 259 276 258 269 276 295 293 300 332 269 261 243 270 196 247 230 234 231 221 213 208 209 213 193 218 203
343 340 341 351 358 364 387 403 425 394 433 376 369 358 369 354 354 375 115 110 303 296 302 280 176 248 227 187 135 250 289 262 276 288 92 289 322 272 264 244 244 267 253 228 234 227 224 215 201 210 218 199 210 198
334 338 351 355 346 353 369 417 428 421 412 415 400 371 361 429 217 356 347 359 358 358 326 309 300 283 283 127 130 98 179 199 143 160 301 288 303 324 265 252 256 264 263 247 223 230 224 215 214 208 210 208 205 200
325 342 362 336 331 341 360 418 421 455 416 398 387 356 359 399 378 332 340 348 353 345 357 355 368 136 224 125 284 310 298 274 301 280 316 286 291 322 275 261 255 261 267 252 226 232 225 216 212 210 207 209 209 200
320 346 353 334 326 341 353 382 425 429 397 394 369 355 354 357 375 388 379 322 316 320 194 108 172 110 271 309 339 336 328 331 281 313 199 268 174 323 302 272 252 261 266 250 226 237 223 221 217 213 208 203 206 208
317 350 346 339 335 335 326 341 364 376 370 353 353 368 369 396 400 404 386 331 319 305 307 326 319 320 316 315 320 317 320 309 312 329 323 285 284 263 322 275 244 248 262 254 232 242 222 225 223 220 211 207 211 215
321 350 352 351 329 331 329 335 340 344 386 363 353 343 362 354 366 353 347 339 311 311 315 311 312 311 309 231 369 361 326 337 346 326 280 279 288 290 339 281 252 248 265 264 246 241 224 218 224 217 211 202 202 207
320 344 346 360 328 333 378 372 356 351 362 363 346 348 340 330 324 324 328 319 312 312 311 311 302 330 325 326 342 341 337 314 299 285 277 278 282 293 346 322 263 249 261 259 240 235 229 225 230 218 215 213 213 213
314 320 340 357 340 347 336 349 384 382 345 333 336 326 322 313 314 303 308 311 309 177 317 303 330 307 321 304 296 292 287 282 275 271 274 275 256 305 330 352 178 250 261 256 239 236 233 225 218 235 228 219 217 213
305 314 317 336 339 332 328 324 345 369 369 329 321 322 310 311 311 308 282 139 322 333 362 322 308 294 289 277 275 279 267 265 267 274 282 178 329 198 228 326 271 237 250 250 245 155 221 228 224 224 235 236 226 214
293 299 310 312 322 335 329 332 336 331 352 339 324 328 321 306 275 132 336 331 308 298 297 229 236 276 270 265 270 265 262 266 274 282 290 408 351 135 340 132 315 249 256 237 152 175 236 225 228 228 225 231 233 230
296 292 292 305 306 309 321 312 317 320 321 326 334 333 328 325 222 225 294 289 280 267 272 268 270 264 266 267 266 266 268 272 278 283 300 336 342 190 147 202 177 224 228 259 248 246 242 234 228 231 225 224 223 223
323 308 299 290 293 307 302 295 296 294 293 289 288 289 286 273 277 280 274 272 271 271 245 265 264 261 264 267 267 269 268 273 280 363 307 319 276 317 316 155 344 277 142 257 251 240 246 154 233 232 231 226 224 223
293 320 353 331 308 294 300 297 286 288 282 279 281 279 279 277 274 271 269 265 259 265 265 266 265 266 268 272 271 281 297 328 346 324 300 315 310 308 322 318 152 172 257 248 254 249 246 237 238 233 232 227 225 225
278 257 291 333 386 361 313 301 297 296 285 283 277 265 271 265 270 268 267 269 268 269 270 268 266 269 264 290 208 291 307 300 308 305 297 288 288 304 286 327 272 334 270 256 246 255 233 239 242 240 235 232 228 224
259 275 276 284 299 402 422 409 326 311 299 295 290 284 278 275 270 270 267 269 271 226 151 202 209 282 293 294 307 315 296 290 290 286 290 290 281 321 350 414 340 329 316 274 231 233 247 243 237 240 239 237 236 235
255 254 255 246 262 274 291 325 336 443 422 328 309 298 290 282 287 280 275 271 271 273 271 278 281 309 319 339 316 300 298 294 293 293 287 296 303 291 313 366 363 359 319 175 296 261 251 247 246 243 241 237 236 237
237 249 249 200 259 255 252 265 278 290 320 359 457 398 324 305 289 281 280 276 269 278 277 278 291 284 329 315 274 289 281 281 281 283 268 297 320 293 310 312 326 297 240 175 312 302 312 264 255 250 248 247 247 244
241 234 251 248 235 229 246 261 268 262 260 271 283 397 477 434 331 300 301 276 285 305 296 290 288 268 275 279 261 271 278 284 281 281 294 281 283 209 294 200 294 303 302 287 298 292 298 305 293 275 267 260 255 252
251 244 249 249 254 254 255 252 248 260 264 267 267 249 269 268 271 273 271 273 270 266 267 262 259 262 265 274 277 199 283 279 279 280 278 274 272 279 295 286 277 283 284 294 292 294 299 255 282 285 280 275 271 269
245 241 237 225 229 253 244 249 256 249 235 210 228 207 258 259 243 244 240 259 253 254 254 256 249 243 246 246 248 250 255 257 257 258 259 261 271 276 277 278 282 287 286 287 286 286 292 297 296 293 288 278 274 272
247 248 248 245 245 244 243 246 245 243 242 241 241 245 251 247 246 243 247 247 244 249 245 244 245 244 242 248 248 247 248 251 250 249 251 258 257 257 257 261 264 271 274 275 280 279 282 283 287 291 293 295 296 296
237 239 240 244 242 243 244 242 244 244 244 245 244 244 247 244 238 244 245 237 239 235 241 245 247 247 243 239 238 239 251 249 248 250 253 253 253 252 257 258 260 261 261 262 267 270 272 275 278 280 283 285 287 290
240 235 238 236 233 230 244 242 242 234 241 242 240 240 242 241 244 246 241 236 239 243 244 244 249 251 250 249 250 255 258 260 260 258 261 260 269 268 267 265 267 265 265 265 267 266 266 269 270 274 275 274 274 273
233 242 240 236 235 239 240 235 232 240 239 239 239 241 240 244 241 244 242 239 236 239 240 246 257 257 258 264 264 265 267 266 266 304 307 310 311 312 311 283 282 281 282 283 286 286 285 283 284 284 286 286 287 286
240 239 233 234 240 240 239 240 240 241 247 249 247 244 246 250 249 250 243 242 252 262 265 269 269 273 275 282 295 311 319 325 332 335 340 365 375 377 397 422 410 373 366 335 328 323 318 314 311 309 308 306 306 307
245 246 237 235 232 237 243 244 245 248 251 252 247 246 254 253 245 254 262 262 263 270 272 274 284 289 307 333 343 419 458 451 443 439 432 427 422 421 416 415 414 412 412 414 414 413 412 412 412 414 412 410 408 412
246 243 241 244 246 247 248 250 252 249 244 253 254 253 249 261 255 263 262 271 273 273 285 294 317 339 469 458 446 435 428 465 469 464 459 451 445 440 438 435 432 427 423 418 407 403 406 410 413 413 405 400 397 399
244 247 247 248 241 244 246 248 252 255 253 249 255 264 256 261 270 274 278 277 287 297 320 353 463 452 435 417 457 449 447 445 444 441 438 435 436 435 434 439 446 450 453 451 445 434 418 404 390 384 384 381 377 379
247 249 252 253 253 252 254 253 254 255 260 266 263 270 274 279 282 280 288 301 320 376 461 447 445 419 396 436 426 425 419 412 410 408 409 410 414 420 433 436 436 433 426 415 397 381 372 370 373 382 379 369 362 356
255 256 257 259 257 259 262 262 265 264 267 274 274 278 278 282 285 303 318 320 460 451 427 463 449 393 409 410 404 402 396 390 383 382 382 383 389 392 393 391 387 386 384 384 384 384 383 375 364 356 352 355 354 349
258 262 259 259 261 267 265 267 273 272 280 281 281 286 291 306 317 321 454 447 437 454 464 458 450 429 411 398 389 382 381 384 384 384 381 381 378 372 368 367 364 367 389 381 370 361 352 351 356 353 346 341 336 334
259 265 269 267 266 269 275 277 282 281 288 293 303 312 318 318 439 440 440 452 460 467 454 442 429 410 395 389 384 384 382 400 473 462 448 430 411 397 389 378 368 355 351 348 358 355 351 347 338 333 330 327 329 335

GFSWCAN_2pvu_pres_075.txt.gz
Presure
357 350 329 339 342 350 365 369 367 368 371 378 385 391 389 373 376 302 289 255 285 265 196 262 263 93 255 256 240 109 265 267 274 281 281 284 284 298 317 272 276 261 253 259 262 257 187 237 228 228 232 211 215 207
341 333 333 341 372 351 342 347 354 363 397 360 363 356 372 355 351 359 367 304 292 283 272 271 253 260 254 258 262 106 260 261 263 263 278 284 283 284 306 282 272 264 254 255 268 257 233 232 233 235 231 216 211 216
332 328 331 346 341 338 344 350 366 409 391 401 363 353 351 351 357 363 337 393 132 300 285 279 265 250 257 107 226 232 259 270 265 267 199 280 283 284 293 301 272 258 267 240 270 250 234 235 238 231 228 223 215 219
323 325 336 359 341 338 335 352 437 438 407 414 399 358 346 341 350 354 408 226 372 339 304 292 276 237 243 253 261 125 257 256 269 280 282 269 274 293 285 296 303 267 275 248 269 252 221 238 233 227 223 221 218 219
325 340 361 354 342 339 336 360 412 439 413 403 382 391 364 348 351 371 344 354 394 126 420 299 289 282 254 205 251 261 257 132 265 261 265 285 182 280 293 290 302 274 272 264 256 265 253 234 223 234 222 222 227 177
337 354 353 336 340 339 344 375 396 400 393 400 403 375 359 355 365 339 333 358 403 371 346 358 277 92 146 271 265 266 122 268 273 275 284 262 286 137 214 284 293 315 270 272 247 278 253 232 224 227 231 221 224 217
352 350 332 349 379 363 353 361 372 362 351 350 342 345 357 408 355 321 325 326 326 329 322 356 358 313 175 291 259 111 292 292 292 291 299 303 286 275 238 176 289 304 270 271 257 251 266 236 228 226 226 223 218 219
347 339 335 348 386 359 350 353 361 367 361 364 370 369 362 365 329 320 315 335 327 299 313 325 350 353 151 293 146 331 328 332 332 350 348 341 325 315 194 309 285 297 309 277 266 251 271 265 229 225 221 221 225 226
334 332 330 327 367 381 354 335 353 349 349 354 364 359 363 378 317 300 302 301 310 308 317 311 332 333 328 324 325 328 331 332 337 335 330 324 323 334 327 294 291 286 306 328 277 256 250 271 248 230 222 223 224 227
332 334 328 324 337 342 339 339 337 334 334 325 333 349 347 334 322 305 309 309 311 320 321 321 307 311 316 325 337 357 367 382 353 339 331 330 306 298 291 286 291 297 294 317 343 258 250 263 258 243 231 223 223 225
307 327 312 320 325 345 331 334 324 315 323 312 319 334 312 318 329 275 329 319 314 258 305 311 317 310 314 306 306 304 286 298 294 291 286 287 281 271 281 282 287 283 286 310 343 342 246 257 261 234 239 234 235 224
296 307 312 309 320 316 331 327 321 313 305 299 292 297 307 302 304 210 298 187 255 315 317 298 307 293 291 291 281 274 276 277 274 271 272 271 273 274 171 283 290 289 231 250 313 315 255 236 197 259 249 203 205 237
293 288 303 307 304 307 308 306 307 309 317 322 320 314 316 317 315 315 315 303 316 301 303 293 285 276 276 268 273 265 265 265 264 263 266 270 276 254 210 375 320 286 301 307 306 306 181 179 243 182 250 144 181 237
338 307 290 298 296 296 296 300 301 303 306 296 296 293 295 293 291 286 288 285 279 275 272 271 272 266 266 263 262 260 263 265 263 271 277 289 293 297 158 156 153 300 248 161 310 315 314 257 251 232 214 239 242 143
358 375 336 301 295 290 294 292 296 291 285 286 284 284 278 276 272 269 269 271 264 269 267 267 265 266 266 268 269 270 271 283 302 328 320 359 329 322 316 309 299 309 243 296 255 254 152 298 246 206 244 249 244 239
243 250 391 378 311 304 293 286 286 279 273 279 274 274 269 266 265 267 263 263 263 264 265 265 263 263 269 264 269 280 292 285 305 304 306 317 308 307 305 302 258 301 304 287 299 296 286 312 290 245 251 251 246 241
266 272 281 291 369 437 344 310 299 287 283 278 272 269 269 267 270 264 265 262 261 260 261 263 262 272 287 294 301 304 272 303 292 290 287 282 278 280 275 280 275 287 309 365 355 338 312 301 302 286 249 250 247 249
245 241 252 253 264 277 283 437 467 346 306 287 280 279 275 269 262 262 262 265 266 266 270 279 288 284 363 343 326 319 316 303 298 293 281 286 283 291 302 310 306 292 321 344 355 322 315 282 257 289 278 253 250 252
237 237 241 241 244 247 243 272 276 302 471 343 298 287 287 280 271 280 282 284 287 294 296 294 284 286 298 305 297 290 288 286 288 287 278 276 289 293 274 286 310 301 297 305 314 217 316 333 324 314 296 243 264 230
253 250 251 249 251 253 265 261 257 261 262 264 274 270 268 272 272 268 268 260 258 262 262 262 260 258 255 255 258 258 257 259 261 262 265 263 266 272 278 281 285 287 288 296 293 299 321 308 305 296 298 310 310 302
236 227 239 241 249 255 253 253 241 219 224 209 247 235 231 244 246 260 245 241 241 240 240 257 257 244 245 241 239 246 258 256 257 258 255 255 254 254 259 260 269 270 274 279 285 292 301 290 296 298 300 288 288 290
246 248 242 251 245 249 249 250 247 253 257 257 257 244 233 241 249 236 224 249 247 245 228 242 235 238 251 241 249 252 250 245 253 243 243 254 219 252 218 259 256 260 262 262 262 268 272 273 281 286 288 288 289 294
242 244 244 246 245 248 245 251 248 248 253 247 245 249 250 244 246 248 246 247 246 249 238 230 246 239 246 248 250 252 257 256 258 254 254 254 262 267 270 270 263 260 260 263 264 263 266 268 269 271 271 273 276 276
243 239 237 241 239 238 243 242 243 234 236 237 243 241 242 245 247 245 241 239 245 242 238 253 244 246 251 251 251 251 254 262 265 262 265 264 271 272 274 280 283 280 282 285 282 281 276 273 275 275 274 273 274 275
245 243 240 244 241 240 246 240 243 242 240 243 246 249 250 246 243 241 246 249 244 244 252 253 256 257 266 269 268 267 254 252 279 289 294 297 299 307 309 312 314 311 305 305 303 304 303 303 305 305 305 304 292 290
247 249 243 239 237 238 240 238 230 238 242 244 241 244 250 249 246 248 247 243 249 251 251 258 265 273 270 272 280 283 296 303 313 325 336 368 382 387 385 383 379 377 377 377 375 371 367 365 362 359 355 353 352 350
247 249 247 245 245 240 232 233 241 244 245 245 247 242 248 250 248 242 248 255 258 260 269 273 272 277 284 294 311 319 411 461 454 449 445 438 439 432 430 425 422 418 414 412 409 407 406 403 400 402 401 400 404 404
251 252 250 247 246 246 244 242 248 247 244 244 244 250 247 252 260 256 260 266 273 274 277 286 304 314 317 393 466 458 446 433 443 451 454 449 446 446 448 448 449 449 448 445 444 446 445 444 441 439 437 434 427 416
247 245 245 246 249 245 244 246 244 245 248 249 249 258 261 257 263 270 277 278 285 298 313 325 316 472 457 446 465 452 420 394 431 424 422 418 419 421 426 427 429 435 441 444 446 449 449 446 439 426 412 395 379 371
244 248 248 250 250 249 251 253 253 257 259 262 262 260 269 270 276 278 285 296 315 321 314 447 452 463 463 468 452 437 399 413 406 403 398 391 385 384 387 391 392 391 387 386 403 388 377 379 377 374 378 382 378 367
244 247 251 253 252 255 259 259 258 266 269 266 273 273 275 281 283 294 316 317 312 398 444 454 464 471 466 457 449 433 412 400 393 386 379 386 387 386 383 381 377 375 373 374 374 374 372 375 375 367 362 356 356 356
257 257 261 264 268 259 270 267 266 269 272 276 277 274 288 288 312 321 309 385 381 460 457 472 464 450 438 425 415 404 396 389 383 383 382 383 383 403 459 375 391 417 404 397 383 373 365 354 350 353 356 351 344 336
269 268 256 259 265 270 279 269 278 276 278 281 288 285 302 318 306 379 369 373 466 476 466 453 434 418 406 398 393 385 400 459 447 433 423 412 403 395 389 380 371 362 353 349 353 361 356 353 352 346 337 333 329 326